Preview of NWS' New Version of Forecast
This preview is not operational and should not be used for support decisions.

Regional Weather Roundup (RWR)

Issued by National Weather Service (NWS)

                            
000
ASUS43 KDMX 172301
RWRIA 

WEATHER ROUNDUP FOR IOWA
NATIONAL WEATHER SERVICE DES MOINES IA
500 PM CST SUN FEB 17 2019

NOTE: "FAIR" INDICATES FEW OR NO CLOUDS BELOW 12,000 FEET WITH NO
SIGNIFICANT WEATHER AND/OR OBSTRUCTIONS TO VISIBILITY.

* - THESE STATIONS ARE NOT NWS STATIONS...THUS NOT UNDER NWS
QUALITY CONTROL.  THEY ALSO DO NOT REPORT WEATHER SUCH 
AS PRECIPITATION OR FOG.  

IAZ001>003-012>014-020>022-031>034-043>046-180000-
   NORTHWEST IOWA
  
CITY           SKY/WX    TMP DP  RH WIND       PRES   REMARKS
CARROLL *      CLOUDY    21  19  93 N10       29.95R WCI  10          
CHEROKEE *     LGT SNOW  20  17  90 N7        29.99R WCI  11          
DENISON *      MOCLDY    19  16  86 N10       29.98R WCI   8          
LE MARS *      MOCLDY    19  16  86 N12       30.01R WCI   7          
ORANGE CITY *  LGT SNOW  19  18  93 N10       29.99R WCI   8          
SHELDON *      LGT SNOW  19  19 100 N14       29.98R WCI   6          
SIOUX CITY     LGT SNOW  20  15  81 N15       30.02R WCI   6          
SPENCER        LGT SNOW  21  16  81 N14       29.97R WCI   8          
STORM LAKE *   LGT SNOW  18  18 100 N14       29.95R WCI   4          
$$
 
IAZ055>058-069>071-079>083-090>094-180000-
   SOUTHWEST IOWA
  
CITY           SKY/WX    TMP DP  RH WIND       PRES   REMARKS
ATLANTIC *     CLEAR     21  21 100 NW9       29.95R WCI  11          
AUDUBON *      LGT SNOW  21  18  86 CALM      29.94R                  
CLARINDA *     MIX PCPN  25  21  86 NW12G18   29.99R WCI  14          
COUNCIL BLFS * MOCLDY    21  21 100 NW12      29.97R WCI   9          
CRESTON *      MIX PCPN  25  23  93 NW14      29.92R WCI  13          
HARLAN  *      MOCLDY    21  19  93 N16       29.96R WCI   7          
LAMONI         CLOUDY    26  21  81 NW13      29.90R HAZE    WCI  15  
RED OAK *      FLURRIES  25  21  86 NW10      29.97R WCI  15          
SHENANDOAH *   FLURRIES  25  21  86 NW10G20   30.00R WCI  15          
$$
 
IAZ047>049-059>061-072>074-084-180000-
   CENTRAL IOWA
  
CITY           SKY/WX    TMP DP  RH WIND       PRES   REMARKS
AMES           LGT SNOW  24  20  84 N10       29.92R FOG     WCI  14  
ANKENY *       LGT SNOW  25  21  86 N9G15     29.93R WCI  15          
BOONE *        CLOUDY    21  21 100 N10       29.91R WCI  10          
CHARITON *     LGT SNOW  27  25  93 NW10      29.89R WCI  17          
DES MOINES     LGT SNOW  24  21  88 N8        29.91R FOG     WCI  15  
GRINNELL*      LGT SNOW  25  23  91 N9        29.88R WCI  16          
KNOXVILLE *    CLOUDY    25  25 100 NW9       29.89R FOG     WCI  15  
MARSHALLTOWN   LGT SNOW  24  22  91 N12       29.89R FOG     WCI  13  
NEWTON *       LGT SNOW  25  25 100 N8        29.89R WCI  16          
PELLA *        LGT SNOW  26  23  87 N6        29.91R WCI  20          
PERRY *        LGT SNOW  23  21  93 CALM      29.93R                  
$$
 
IAZ004>006-015-016-023>025-035-036-180000-
   NORTH CENTRAL IOWA
  
CITY           SKY/WX    TMP DP  RH WIND       PRES   REMARKS
ALGONA *       LGT SNOW  21  21 100 N16       29.94R WCI   7          
CLARION *      CLOUDY    23  21  93 N10       29.93R WCI  12          
ESTHERVILLE    LGT SNOW  19  16  88 N14       29.96R FOG     WCI   6  
FORT DODGE *   LGT SNOW  23  19  85 N8        29.94R FOG     WCI  14  
MASON CITY     LGT SNOW  22  20  92 NE14      29.94R FOG     WCI   9  
FOREST CITY *  LGT SNOW  23  21  93 N9        29.94R WCI  13          
IOWA FALLS *   LGT SNOW  24  21  89 N8        29.92R WCI  15          
$$

IAZ007>011-017>019-026>030-037>042-050>054-066-180000-
   NORTHEAST IOWA
  
CITY           SKY/WX    TMP DP  RH WIND       PRES   REMARKS
CEDAR RAPIDS   LGT SNOW  24  24 100 NW5       29.86R VSB 1   WCI  18  
CHARLES CITY * LGT SNOW  23  21  93 NE12      29.92R VSB 3/4 WCI  12  
CLINTON *      LGT SNOW  27  25  92 NE5       29.87R FOG     WCI  22  
DECORAH *      LGT SNOW  23  23 100 NE9G15    29.90R WCI  13          
DUBUQUE        LGT SNOW  24  19  81 NE15G26   29.86R WCI  11          
OELWEIN *      CLOUDY    23  23 100 NE13      29.89R FOG     WCI  11  
WATERLOO       LGT SNOW  24  21  88 N10       29.91R FOG     WCI  14  
$$
 
IAZ064-065-067-068-078-180000-
   EAST CENTRAL IOWA
  
CITY           SKY/WX    TMP DP  RH WIND       PRES   REMARKS
DAVENPORT      LGT SNOW  27  23  85 MISG      29.87R FOG              
IOWA CITY      LGT SNOW  27  23  85 NE6       29.88R FOG     WCI  20  
MT. PLEASANT * MIX PCPN  30  27  86 N7        29.87R WCI  23          
MUSCATINE *    CLOUDY    27  23  86 N7        29.88R WCI  19          
QUAD CITIES    LGT SNOW  28  24  85 CALM      29.85R FOG              
$$
 
IAZ062-063-075>077-085>089-095>099-180000-
   SOUTHEAST IOWA
  
CITY           SKY/WX    TMP DP  RH WIND       PRES   REMARKS
BURLINGTON     CLOUDY    28  23  81 N5        29.86R WCI  23          
FAIRFIELD *    CLOUDY    27  23  86 N7        29.87R FOG     WCI  19  
KEOKUK *       FLURRIES  30  27  86 NW7       29.86R WCI  23          
OSKALOOSA *    LGT SNOW  26  23  89 N6        29.89R WCI  19          
OTTUMWA        LGT SNOW  26  23  88 NW8       29.88R FOG     WCI  18  
WASHINGTON *   CLOUDY    25  25 100 N7        29.88R WCI  17          
$$

ABBREVIATIONS USED IN REMARKS
   TC - TEMPERATURES IN CELSIUS
  WCI - WIND CHILL INDEX
   HX - HEAT INDEX
  VSB - VISIBILITY  
$$